User: anonymous   Login
Location: Peebles
(55.6412°N, 3.1714°W)
Time: 06:53:25
(UTC+00:00)
Language:

H-2A R/B - Orbit

View from above orbital plane
View from above orbital plane
View from above satellite
View from above satellite

Ground track
Ground track

The orbit data is extracted from the following two-line orbital elements,

1 27601U 02056E   21336.29977909  .00000004  00000-0  15904-4 0  9993
2 27601  98.1820 349.1420 0073063 128.8473 242.2858 14.32024434990951
Epoch (UTC): 02 December 2021 07:11:40
Eccentricity: 0.0073063
inclination: 98.1820°
perigee height: 732 km
apogee height: 837 km
right ascension of ascending node: 349.1420°
argument of perigee: 128.8473°
revolutions per day: 14.32024434
mean anomaly at epoch: 242.2858°
orbit number at epoch: 99095

The dashed part of the orbit path shows where the satellite is in the earth's shadow,  

DLR